Zurück zum Katalog

COSMOS 1914

AktivMilitärPO
NORAD 18793·PAYLOAD·🇷🇺 Russia

Gestartet Jan 15, 1988 von Plesetsk Cosmodrome

Loading…

Nächste Überflüge (nächste 24 Stunden)

TLE

AktuellSource: Space-Track

Epoche: Sep 14, 2026, 22:54 UTC

1 18793U 88002F   26257.95461117  .00000030  00000-0  10329-3 0  9993
2 18793  82.6099 155.3436 0017109 162.6089 211.2411 12.66463996787153

Verfolge COSMOS 1914 in Echtzeit mit AllMySat

Download on the App Store